084  
ASUS41 KBGM 051310  
RWRBGM  
 
REGIONAL WEATHER ROUNDUP  
NATIONAL WEATHER SERVICE BINGHAMTON NY  
900 AM EDT TUE JUL 05 2022  
 
NOTE: "FAIR" INDICATES FEW OR NO CLOUDS BELOW 12,000 FEET WITH NO  
SIGNIFICANT WEATHER AND/OR S TO VISIBILITY
.  
 
* = STATION(S) THAT DOES NOT REPORT PRECIPITATION, SUCH AS RAIN,  
SNOW, ETC, ALSO NO THUNDER OR FOG.
 
 
NYZ009-015>018-022>025-036-037-044>046-055>057-062-051400   
..CENTRAL NEW YORK
 
 
 
CITY SKY/WX TMP DP RH WIND PRES REMARKS
 
BINGHAMTON PTSUNNY 68 57 68 S6 30.05F  
CORTLAND FAIR 68 59 73 CALM 30.03F  
DANSVILLE PTSUNNY 75 59 57 VRB3 29.95F  
ELMIRA PTSUNNY 73 60 63 N5 29.99F  
ENDICOTT SUNNY 72 61 68 CALM 30.02F  
ITHACA PTSUNNY 71 58 63 SE13 30.01F  
HAMILTON PTSUNNY 66 55 68 MISG 30.03F  
MONTICELLO PTSUNNY 68 59 73 CALM 30.11F  
NORWICH PTSUNNY 66 59 77 S3 30.07F  
ONEONTA MOSUNNY 66 57 72 CALM 30.08F  
PENN YAN PTSUNNY 73 58 59 SW8 29.98F  
ROME LGT RAIN 64 58 80 E5 30.03F  
SENECA FALLS SUNNY 73 61 64 S8 29.96F  
SIDNEY SUNNY 66 61 82 CALM 30.06F  
SKANEATELES FAIR 72 61 68 CALM 29.99F  
SYRACUSE CLOUDY 65 58 78 NE7 29.99F  

 
 
PAZ038>040-043-044-047-048-072-051400   
..NORTHEAST PENNSYLVANIA
 
 
 
CITY SKY/WX TMP DP RH WIND PRES REMARKS
 
HAZLETON MOSUNNY 73 61 64 S6 30.12F  
SCRANTON MOSUNNY 78 60 53 SW7 30.07F  

 

 
KEY  
WCI = WIND CHILL INDEX  
VSB = VISIBILITY  
HX = HEAT INDEX  

 
 
 
CLICK HERE TO GO TO PREVIOUS BULLETINS.

The Nexlab NY Page
The Nexlab PA Page Main Text Page